Miscellaneous Local Product
Issued by NWS Hastings, NE

Home | Current Version | Previous Version | Graphics & Text | Print | Product List | Glossary On
Versions: 1 2 3 4 5 6 7 8 9 10 11 12 13 14 15 16 17 18 19 20 21 22 23 24 25 26 27 28 29 30 31 32 33 34 35 36 37 38 39 40 41 42 43 44 45 46 47 48 49 50
000
AXUS43 KGID 231402
MISGRI

GID CWA HOURLY WEATHER ROUNDUP
NATIONAL WEATHER SERVICE HASTINGS NE
900 AM CDT WED AUG 23 2017

NOTE: "FAIR" INDICATES FEW OR NO CLOUDS BELOW 12,000 FEET WITH NO
SIGNIFICANT WEATHER AND/OR OBSTRUCTIONS TO VISIBILITY.

...SOUTH CENTRAL NEBRASKA...

CITY           SKY/WX    TMP DP  RH WIND       PRES   REMARKS
GRAND ISLAND   SUNNY     64  54  69 S12       30.18S
HASTINGS       SUNNY     62  53  72 S7        30.19S
KEARNEY        SUNNY     61  54  77 S12       30.19S
ORD            SUNNY     61  53  75 S8        30.15S
YORK           MOSUNNY   61  55  82 SW6       30.18S
AURORA         MOSUNNY   63  54  71 S8        30.18S
LEXINGTON      SUNNY     64  53  69 S8        30.19S
HOLDREGE       SUNNY     61  52  71 S9        30.19S
HEBRON         SUNNY     64  55  73 S5        30.18F

...NEBRASKA PANHANDLE...

CITY           SKY/WX    TMP DP  RH WIND       PRES   REMARKS
CHADRON        SUNNY     67  54  63 S10       30.08S
ALLIANCE       SUNNY     60  51  72 S14       30.13S
SCOTTSBLUFF    SUNNY     61  53  75 E7        30.13R
SIDNEY         SUNNY     62  54  74 S15       30.17R

...WESTERN AND NORTH CENTRAL NEBRASKA...

CITY           SKY/WX    TMP DP  RH WIND       PRES   REMARKS
VALENTINE      MOSUNNY   68  51  54 SW13      30.10S
AINSWORTH      SUNNY     65  54  68 SW14      30.12S
ONEILL         MOSUNNY   63  57  79 S9        30.15S
BROKEN BOW     SUNNY     64  52  64 SW10      30.16S
IMPERIAL       MOSUNNY   63  47  55 S13G22    30.19R
NORTH PLATTE   SUNNY     63  52  67 S8        30.18R
MCCOOK         SUNNY     63  51  65 S13       30.19R

...EASTERN NEBRASKA...

CITY           SKY/WX    TMP DP  RH WIND       PRES   REMARKS
NORFOLK        MOSUNNY   63  55  75 S8        30.15F
SO SIOUX CITY  SUNNY     61  57  87 E3        30.16F
TEKAMAH        SUNNY     61  57  87 CALM      30.17S
COLUMBUS       SUNNY     64  54  69 S8        30.18S
ALBION         SUNNY     62  56  81 S5        30.17F
OMAHA EPPLEY   SUNNY     65  57  75 NE3       30.17S
OFFUTT AFB     SUNNY     62  55  77 W3        30.17S
MILLARD        SUNNY     66  57  72 CALM      30.17F
LINCOLN        SUNNY     64  55  72 CALM      30.18S
NEBRASKA CITY  SUNNY     61  58  91 W5        30.18R
BEATRICE       SUNNY     62  56  80 CALM      30.18S
FALLS CITY     SUNNY     61  57  87 CALM      30.17R

...NORTHERN KANSAS...

CITY           SKY/WX    TMP DP  RH WIND       PRES   REMARKS
GOODLAND       SUNNY     61  49  64 S20G25    30.20S
HILL CITY      SUNNY     63  53  70 S9        30.21S
NORTON         SUNNY     63  46  55 S14       30.19S
PHILLIPSBURG   SUNNY     63  54  72 SE6       30.20S
SMITH CENTER   PTSUNNY   61  54  77 S3        30.20S
HAYS           SUNNY     61  54  77 S5        30.21R
RUSSELL        SUNNY     64  51  62 S8        30.18S
CONCORDIA      SUNNY     64  57  78 SE5       30.18S
SALINA         SUNNY     66  53  63 SE5       30.18F
TOPEKA         SUNNY     64  59  83 CALM      30.17S



USA.gov is the U.S. government's official web portal to all federal, state and local government web resources and services.